User: anonymous   Login
Location: Luz Observatory
(34.5000°N, 117.2833°W)
Time: 21:34:57
(UTC-08:00)
Language:

Cosmos 1452 Rocket - Orbit

View from above orbital plane
View from above orbital plane
View from above satellite
View from above satellite

Ground track
Ground track

The orbit data is extracted from the following two-line orbital elements,

1 13992U 83031B   16041.91379339 +.00000123 +00000-0 +51329-4 0  9995
2 13992 074.0525 189.9697 0006121 289.9726 186.7929 14.36012697717850
Epoch (UTC): 10 February 2016 21:55:51
Eccentricity: 0.0006121
inclination: 74.0525°
perigee height: 767 km
apogee height: 776 km
right ascension of ascending node: 189.9697°
argument of perigee: 289.9726°
revolutions per day: 14.36012697
mean anomaly at epoch: 186.7929°
orbit number at epoch: 71785

The dashed part of the orbit path shows where the satellite is in the earth's shadow,  

DLR